TimeEST,TemperatureF,Dew PointF,Humidity,Sea Level PressureIn,VisibilityMPH,Wind Direction,Wind SpeedMPH,Gust SpeedMPH,PrecipitationIn,Events,Conditions,WindDirDegrees,DateUTC
12:15 AM,48.2,48.2,100,29.99,0.5,WSW,8.1,-,N/A,Fog,Fog,250,2012-12-09 05:15:00
12:35 AM,48.2,48.2,100,30.00,0.8,West,3.5,-,N/A,,Overcast,260,2012-12-09 05:35:00
12:55 AM,48.2,48.2,100,30.01,1.0,Calm,Calm,-,N/A,,Overcast,0,2012-12-09 05:55:00
1:15 AM,48.2,48.2,100,30.02,0.8,Calm,Calm,-,N/A,,Overcast,0,2012-12-09 06:15:00
1:35 AM,48.2,48.2,100,30.04,0.8,Calm,Calm,-,N/A,,Overcast,0,2012-12-09 06:35:00
1:55 AM,48.2,48.2,100,30.04,0.8,Calm,Calm,-,N/A,,Overcast,0,2012-12-09 06:55:00
2:15 AM,48.2,48.2,100,30.05,1.8,NW,3.5,-,N/A,,Overcast,320,2012-12-09 07:15:00
2:35 AM,46.4,46.4,100,30.06,3.0,NNW,5.8,-,N/A,,Overcast,340,2012-12-09 07:35:00
2:55 AM,46.4,46.4,100,30.07,5.0,North,5.8,-,N/A,,Mostly Cloudy,350,2012-12-09 07:55:00
3:15 AM,46.4,46.4,100,30.07,6.0,North,5.8,-,N/A,,Partly Cloudy,360,2012-12-09 08:15:00
3:35 AM,46.4,46.4,100,30.07,7.0,NNE,4.6,-,N/A,,Clear,20,2012-12-09 08:35:00
3:55 AM,46.4,44.6,93,30.08,8.0,North,6.9,-,N/A,,Clear,10,2012-12-09 08:55:00
4:15 AM,46.4,44.6,93,30.09,10.0,North,4.6,-,N/A,,Clear,360,2012-12-09 09:15:00
4:35 AM,46.4,42.8,87,30.11,10.0,North,4.6,-,N/A,,Clear,10,2012-12-09 09:35:00
4:55 AM,46.4,42.8,87,30.12,10.0,North,5.8,-,N/A,,Clear,10,2012-12-09 09:55:00
5:15 AM,44.6,41.0,87,30.13,10.0,North,10.4,-,N/A,,Clear,360,2012-12-09 10:15:00
5:55 AM,44.6,39.2,81,30.16,10.0,North,10.4,17.3,N/A,,Clear,350,2012-12-09 10:55:00
6:15 AM,44.6,37.4,76,30.16,10.0,North,8.1,-,N/A,,Clear,10,2012-12-09 11:15:00
6:35 AM,42.8,37.4,81,30.17,10.0,North,9.2,18.4,N/A,,Clear,10,2012-12-09 11:35:00
6:55 AM,42.8,37.4,81,30.19,10.0,North,11.5,-,N/A,,Clear,350,2012-12-09 11:55:00
7:15 AM,42.8,37.4,81,30.20,10.0,North,12.7,18.4,N/A,,Clear,350,2012-12-09 12:15:00
7:35 AM,42.8,37.4,81,30.21,10.0,North,16.1,-,N/A,,Clear,350,2012-12-09 12:35:00
7:55 AM,44.6,35.6,71,30.22,10.0,North,11.5,19.6,N/A,,Clear,10,2012-12-09 12:55:00
8:15 AM,44.6,35.6,71,30.22,10.0,North,10.4,16.1,N/A,,Clear,10,2012-12-09 13:15:00
8:35 AM,44.6,35.6,71,30.23,10.0,NNE,9.2,-,N/A,,Clear,20,2012-12-09 13:35:00
8:55 AM,44.6,35.6,71,30.24,10.0,North,10.4,-,N/A,,Clear,10,2012-12-09 13:55:00
9:15 AM,44.6,35.6,71,30.24,10.0,North,10.4,-,N/A,,Clear,350,2012-12-09 14:15:00
9:35 AM,44.6,35.6,71,30.24,10.0,North,12.7,-,N/A,,Partly Cloudy,350,2012-12-09 14:35:00
9:55 AM,44.6,35.6,71,30.23,9.0,North,8.1,-,N/A,,Partly Cloudy,10,2012-12-09 14:55:00
10:15 AM,44.6,35.6,71,30.23,10.0,North,9.2,-,N/A,,Clear,360,2012-12-09 15:15:00
10:35 AM,44.6,35.6,71,30.23,10.0,NE,8.1,-,N/A,,Partly Cloudy,40,2012-12-09 15:35:00
10:55 AM,44.6,35.6,71,30.22,10.0,NNE,5.8,-,N/A,,Partly Cloudy,20,2012-12-09 15:55:00
11:15 AM,44.6,35.6,71,30.23,10.0,NNE,6.9,-,N/A,,Scattered Clouds,20,2012-12-09 16:15:00
11:35 AM,44.6,35.6,71,30.22,10.0,NNE,6.9,-,N/A,,Partly Cloudy,20,2012-12-09 16:35:00
11:55 AM,44.6,35.6,71,30.22,10.0,NNE,6.9,-,N/A,,Partly Cloudy,30,2012-12-09 16:55:00
12:15 PM,44.6,35.6,71,30.22,10.0,North,5.8,-,N/A,,Scattered Clouds,10,2012-12-09 17:15:00
12:35 PM,44.6,35.6,71,30.22,10.0,NNE,5.8,-,N/A,,Scattered Clouds,30,2012-12-09 17:35:00
12:55 PM,44.6,35.6,71,30.22,10.0,NNE,5.8,-,N/A,,Partly Cloudy,30,2012-12-09 17:55:00
1:15 PM,44.6,35.6,71,30.21,9.0,NE,4.6,-,N/A,,Clear,40,2012-12-09 18:15:00
1:35 PM,44.6,35.6,71,30.21,10.0,NE,3.5,-,N/A,,Clear,40,2012-12-09 18:35:00
1:55 PM,44.6,37.4,76,30.22,7.0,NE,3.5,-,N/A,,Light Drizzle,40,2012-12-09 18:55:00
2:15 PM,44.6,37.4,76,30.23,10.0,NNE,3.5,-,N/A,,Partly Cloudy,20,2012-12-09 19:15:00
2:35 PM,44.6,37.4,76,30.23,9.0,NE,3.5,-,N/A,Rain,Light Rain,50,2012-12-09 19:35:00
2:55 PM,44.6,37.4,76,30.23,10.0,NE,4.6,-,N/A,,Mostly Cloudy,50,2012-12-09 19:55:00
3:15 PM,44.6,35.6,71,30.22,10.0,ENE,4.6,-,N/A,,Mostly Cloudy,60,2012-12-09 20:15:00
3:35 PM,44.6,35.6,71,30.22,10.0,East,4.6,-,N/A,,Mostly Cloudy,80,2012-12-09 20:35:00
3:55 PM,44.6,35.6,71,30.22,10.0,East,3.5,-,N/A,Rain,Light Rain,80,2012-12-09 20:55:00
4:15 PM,42.8,35.6,76,30.22,10.0,East,3.5,-,N/A,,Mostly Cloudy,80,2012-12-09 21:15:00
4:35 PM,42.8,37.4,81,30.23,9.0,Calm,Calm,-,0.01,Rain,Light Rain,0,2012-12-09 21:35:00
4:55 PM,42.8,37.4,81,30.22,5.0,ENE,4.6,-,0.03,Rain,Light Rain,70,2012-12-09 21:55:00
5:15 PM,42.8,37.4,81,30.24,9.0,Calm,Calm,-,N/A,,Overcast,0,2012-12-09 22:15:00
5:35 PM,42.8,37.4,81,30.24,5.0,ENE,3.5,-,0.02,Rain,Light Rain,60,2012-12-09 22:35:00
5:55 PM,42.8,39.2,87,30.24,10.0,East,4.6,-,0.02,Rain,Light Rain,80,2012-12-09 22:55:00
6:15 PM,42.8,39.2,87,30.24,8.0,East,4.6,-,N/A,,Overcast,80,2012-12-09 23:15:00
6:35 PM,41.0,39.2,93,30.23,5.0,East,5.8,-,0.01,Rain,Rain,90,2012-12-09 23:35:00
6:55 PM,41.0,37.4,87,30.22,10.0,East,6.9,-,0.02,,Mostly Cloudy,90,2012-12-09 23:55:00
7:15 PM,41.0,37.4,87,30.22,9.0,East,6.9,-,N/A,,Overcast,90,2012-12-10 00:15:00
7:35 PM,39.2,37.4,93,30.21,6.0,East,5.8,-,N/A,,Overcast,90,2012-12-10 00:35:00
7:55 PM,39.2,39.2,100,30.20,2.5,East,6.9,-,N/A,,Overcast,80,2012-12-10 00:55:00
8:15 PM,39.2,39.2,100,30.19,2.0,East,5.8,-,N/A,Rain,Light Rain,80,2012-12-10 01:15:00
8:35 PM,39.2,39.2,100,30.18,2.0,East,5.8,-,N/A,,Overcast,100,2012-12-10 01:35:00
8:55 PM,39.2,39.2,100,30.17,2.0,East,6.9,-,0.01,Rain,Light Rain,80,2012-12-10 01:55:00
9:15 PM,39.2,39.2,100,30.16,1.5,ESE,4.6,-,N/A,,Overcast,110,2012-12-10 02:15:00
9:35 PM,39.2,39.2,100,30.14,1.8,East,5.8,-,N/A,Rain,Light Rain,90,2012-12-10 02:35:00
9:55 PM,41.0,41.0,100,30.12,2.0,East,8.1,-,0.02,,Overcast,80,2012-12-10 02:55:00
10:15 PM,41.0,41.0,100,30.10,4.0,East,8.1,-,N/A,,Overcast,100,2012-12-10 03:15:00
10:35 PM,42.8,42.8,100,30.09,5.0,East,5.8,-,N/A,,Overcast,100,2012-12-10 03:35:00
10:55 PM,42.8,42.8,100,30.07,3.0,East,9.2,-,N/A,,Overcast,100,2012-12-10 03:55:00
11:15 PM,42.8,42.8,100,30.06,2.0,ESE,10.4,-,N/A,Rain,Rain,110,2012-12-10 04:15:00
11:35 PM,42.8,42.8,100,30.05,2.5,ENE,6.9,-,0.02,Rain,Light Rain,70,2012-12-10 04:35:00
11:55 PM,42.8,42.8,100,30.06,1.5,East,6.9,-,0.18,Rain,Heavy Rain,80,2012-12-10 04:55:00